This is the latest recevied weather packets stored in our database for station/object SQ5AAG-2. If no packets are shown the sender has not sent any weather packets the latest 10 day(s).
| Time | Temp. | Humidity | Pressure | Rain* | Wind** | Luminosity | Snow |
|---|---|---|---|---|---|---|---|
| 1787503237 | 18.33° C | 56% | 1004.9 hPa | 0 mm | - | - | - |
| 1787502936 | 19.44° C | 55% | 1004.9 hPa | 0 mm | - | - | - |
| 1787502636 | 20° C | 53% | 1004.9 hPa | 0 mm | - | - | - |
| 1787502337 | 19.44° C | 56% | 1004.8 hPa | 0 mm | - | - | - |
| 1787502069 | 18.89° C | 56% | 1004.7 hPa | 0 mm | - | - | - |
| 1787502035 | 18.89° C | 56% | 1004.7 hPa | 0 mm | - | - | - |
| 1787501735 | 19.44° C | 58% | 1004.6 hPa | 0 mm | - | - | - |
| 1787501474 | 18.33° C | 60% | 1004.7 hPa | 0 mm | - | - | - |
| 1787501435 | 18.33° C | 60% | 1004.7 hPa | 0 mm | - | - | - |
| 1787501135 | 18.33° C | 60% | 1004.8 hPa | 0 mm | - | - | - |
| 1787500872 | 18.33° C | 59% | 1004.6 hPa | 0 mm | - | - | - |
| 1787500834 | 18.33° C | 59% | 1004.6 hPa | 0 mm | - | - | - |
| 1787500534 | 18.89° C | 58% | 1004.8 hPa | 0 mm | - | - | - |
| 1787500234 | 18.89° C | 57% | 1004.8 hPa | 0 mm | - | - | - |
| 1787499933 | 18.89° C | 56% | 1004.5 hPa | 0 mm | - | - | - |
| 1787499633 | 18.89° C | 59% | 1004.6 hPa | 0 mm | - | - | - |
| 1787499333 | 18.89° C | 59% | 1004.7 hPa | 0 mm | - | - | - |
| 1787499032 | 18.89° C | 58% | 1004.7 hPa | 0 mm | - | - | - |
| 1787498732 | 18.89° C | 57% | 1004.6 hPa | 0 mm | - | - | - |
| 1787498464 | 18.89° C | 57% | 1004.6 hPa | 0 mm | - | - | - |
| 1787498432 | 18.89° C | 57% | 1004.6 hPa | 0 mm | - | - | - |
| 1787498132 | 18.89° C | 57% | 1004.4 hPa | 0 mm | - | - | - |
| 1787497831 | 18.89° C | 57% | 1004.4 hPa | 0 mm | - | - | - |
| 1787497532 | 18.89° C | 57% | 1004.4 hPa | 0 mm | - | - | - |
| 1787497279 | 18.89° C | 58% | 1004.5 hPa | 0 mm | - | - | - |
* Rain latest hour (hover to see other rain measurements)
** Current wind speed in m/s (hover to see current wind gust speed)